User: anonymous   Login
Location: Mt. Cuba Astronomical Observatory
(39.8100°N, 75.6300°W)
Time: 06:50:38
(UTC-04:00)
Language:

Cosmos 2058 - Orbit

View from above orbital plane
View from above orbital plane
View from above satellite
View from above satellite

Ground track
Ground track

The orbit data is extracted from the following two-line orbital elements,

1 20465U 90010A   17206.10487004 +.00000221 +00000-0 +16620-4 0  9991
2 20465 082.4880 211.3986 0016096 161.3261 198.8556 14.97530646469906
Epoch (UTC): 25 July 2017 02:31:00
Eccentricity: 0.0016096
inclination: 82.4880°
perigee height: 563 km
apogee height: 586 km
right ascension of ascending node: 211.3986°
argument of perigee: 161.3261°
revolutions per day: 14.97530646
mean anomaly at epoch: 198.8556°
orbit number at epoch: 46990

The dashed part of the orbit path shows where the satellite is in the earth's shadow,  

DLR